Location: *
(51.4660°N, 0.3360°W)
Time: 04:03:31
(UTC+00:00)

Cosmos 2297 Rocket - Pass Details

Date: 19 September 2019
Orbit: 841 x 842 km, 71.0° (Epoch: 22 October)

Event Time Altitude Azimuth Distance (km) Brightness Sun altitude
Rises 22:27:03 0° 260° (W) 3,397 5.5 -34.0°
Reaches altitude 10° 22:30:07 10° 276° (W) 2,465 4.9 -34.2°
Maximum altitude 22:34:21 21° 325° (NW) 1,802 4.5 -34.5°
Drops below altitude 10° 22:38:37 10° 14° (NNE) 2,472 5.2 -34.8°
Sets 22:41:42 0° 30° (NNE) 3,410 5.8 -35.0°
